ハートレー第3彗星

110P/Hartley 3 (2008)

English version
Home page
Updated on June 20, 2009

---------------------------------------------------------------------

・ プロフィール

・ 写真集

・ 軌道要素

The following orbital elements are taken from MPC 54167:

Epoch 2008 Jan. 15.0 TT = JDT 2454480.5
T 2008 Feb. 3.4876 TT                                   MPC
q   2.488461             (2000.0)            P               Q
n   0.1431129      Peri.  167.8003      -0.1008138      -0.9760447
a   3.619792       Node   287.7458      +0.8949472      -0.0043065
e   0.312540       Incl.   11.6795      +0.4346332      -0.2175276
P   6.89
From 374 observations 1988-2002, mean residual 0".8.  Nongravitational
     parameters A1 = -0.93, A2 = -0.1020.

・ 星図

・ 光度変化

        m1 =  11.0 + 5 logΔ +  13.0 log r  [    ,-140]  (              〜2007年 9月16日)
        m1 = -25.5 + 5 logΔ + 100   log r  [-140,   0]  (2007年 9月16日〜2008年 2月 3日)
        m1 =   0.2 + 5 logΔ +  35   log r  [   0,    ]  (2008年 2月 3日〜              )

---------------------------------------------------------------------

軌道要素はMPCのEphemerides and Orbital Elementsに掲載されたものです。
星図は StellaNavigator Ver.2.0 for Windows (アストロアーツ 編著 / アスキー出版局刊) で作成したものです。
光度グラフはComet for Windowsで作成したものです。

---------------------------------------------------------------------

Copyright(C) Seiichi Yoshida (comet@aerith.net). All rights reserved.